Helicity
61 56 62 67 74 76 85 97 85 80 59 65 63 64 62 60 48 40 37 37 22 11 -0 -8 8 12 20 111 107 13 25 -37 -36 25 63 83 76 39 45 31 30 16 15 6 6 4 25
46 48 57 65 63 67 75 80 69 75 67 63 62 61 57 51 38 36 29 26 15 -6 -15 -19 -6 19 46 87 36 2 71 29 35 28 66 98 85 23 34 49 38 13 5 4 -0 18 13
51 49 54 51 49 46 61 63 73 72 71 61 55 51 45 39 37 35 22 21 18 6 -12 -28 -15 33 93 145 6 -47 53 47 63 108 92 232 168 80 22 62 36 45 67 38 -1 9 39
54 66 57 47 40 39 49 52 60 83 75 56 44 35 36 32 37 37 31 31 22 2 -17 -46 21 62 143 11 6 -15 -1 -14 34 61 100 130 265 279 170 87 157 90 48 41 23 -0 -0
64 55 55 52 45 42 44 48 50 57 72 54 49 35 35 35 44 46 52 38 -7 -43 -50 -14 39 55 67 21 36 23 18 23 54 73 127 130 208 216 192 138 150 126 57 31 20 18 7
70 49 42 47 69 54 42 48 52 52 74 58 58 40 34 36 43 47 65 69 40 -36 -15 -26 -0 32 36 90 130 46 28 44 54 129 116 224 114 113 102 111 95 63 12 10 16 -1 -9
58 62 67 77 70 50 42 49 55 54 65 54 51 45 36 42 53 58 41 97 84 -35 -37 -9 -14 72 -52 1 29 45 70 64 110 141 114 120 88 84 39 76 84 92 72 46 20 -13 16
56 58 56 62 63 69 61 45 52 66 58 57 31 45 47 47 64 67 28 30 53 32 76 1 -33 -7 -28 2 40 37 66 111 84 82 168 342 200 39 52 90 61 105 122 88 34 38 54
43 47 50 57 53 64 74 78 59 76 61 54 49 50 51 51 69 39 14 6 15 38 27 27 3 25 28 27 27 5 37 83 15 33 77 237 256 62 118 84 92 90 83 66 84 42 30
56 46 46 50 59 69 87 100 80 73 58 62 56 63 65 70 63 70 53 42 13 12 23 8 24 48 34 3 28 -0 23 56 4 20 68 80 174 217 269 102 105 104 19 5 31 39 75
49 57 65 65 86 83 89 98 107 79 59 69 66 63 64 77 76 79 59 26 -7 23 96 93 126 75 38 -2 28 48 35 74 -35 3 37 67 133 207 192 135 30 90 28 32 25 33 58
76 76 94 101 83 96 80 79 99 97 71 64 72 58 70 129 58 57 62 5 26 64 73 100 76 64 15 5 43 58 41 46 81 -26 2 38 42 225 178 19 91 87 35 39 71 58 70
68 82 86 104 117 98 83 75 103 105 81 64 63 66 71 82 51 54 47 110 91 120 82 108 116 38 13 -4 25 47 25 39 66 65 -42 20 138 69 54 113 61 99 166 107 109 152 81
52 74 80 83 89 110 91 78 95 108 92 81 59 54 68 52 38 78 122 157 170 167 89 78 82 44 43 72 33 18 25 14 41 -0 19 -3 55 140 25 15 87 133 218 189 157 105 37
57 55 44 51 66 70 79 83 85 83 82 77 52 78 85 78 34 57 162 188 217 18 76 140 105 50 29 53 57 29 4 19 54 85 66 -17 9 5 3 19 18 131 167 35 5 92 168
84 78 83 85 59 48 37 62 48 76 65 72 100 97 76 4 47 82 173 160 128 103 84 122 88 94 108 63 77 47 77 91 114 63 35 27 -27 146 -2 -16 5 39 77 146 86 184 230
83 86 77 60 57 57 45 34 46 23 45 46 112 100 44 29 33 130 180 138 94 87 141 89 81 91 94 107 83 110 84 89 144 174 92 -14 8 -8 112 65 30 30 89 92 136 108 198
60 75 71 61 53 55 58 25 16 33 57 42 118 150 71 35 95 144 129 76 46 92 64 70 83 113 139 140 95 74 85 70 53 42 120 103 70 14 -30 31 25 45 61 53 193 143 63
61 67 60 59 50 45 33 21 -7 34 58 57 98 77 65 74 133 78 63 47 53 92 74 94 59 56 67 93 95 54 51 57 54 69 149 188 78 34 15 39 49 10 49 66 29 46 51
63 64 65 49 42 35 20 11 18 26 35 37 49 101 42 110 80 58 25 23 50 36 52 72 48 25 63 65 65 74 114 48 73 55 29 155 112 84 16 8 156 36 -2 5 63 57 82
53 59 49 27 33 21 6 23 19 30 28 61 44 83 55 61 49 65 58 62 1 5 10 35 85 45 52 91 67 48 22 38 23 35 -39 25 93 136 75 109 6 20 -12 40 82 47 68
36 26 29 19 -6 7 5 34 33 18 33 52 35 38 56 57 58 31 40 52 59 26 -5 23 40 27 38 29 28 36 72 132 89 121 116 -109 136 213 129 104 118 91 21 45 122 29 52
21 21 21 17 9 6 -7 9 5 -5 39 71 58 46 91 77 85 75 32 2 39 56 33 44 32 30 27 33 93 113 89 28 95 155 205 37 69 169 108 193 193 74 99 -19 11 60 62
18 16 6 7 5 8 -6 1 2 -0 25 60 74 80 92 27 58 88 98 16 21 26 54 25 35 16 76 138 74 60 62 61 3 47 85 87 81 20 178 162 116 101 107 100 93 74 52
12 10 5 3 -0 -2 16 -12 -2 -1 19 44 56 63 94 33 40 95 55 103 60 14 56 75 87 62 80 86 73 63 37 46 38 30 24 49 25 54 79 116 100 178 152 163 126 113 36
4 10 15 22 20 12 6 4 -21 -1 14 64 50 51 51 59 27 53 89 48 47 90 52 39 73 59 20 -8 94 57 46 18 39 44 44 52 61 67 94 82 179 20 40 38 79 70 134
21 23 25 22 18 15 30 27 -8 -18 15 46 66 56 14 -40 27 64 36 44 57 51 51 62 70 43 45 37 51 21 -7 31 25 19 58 55 80 64 94 103 92 59 12 47 114 169 280
14 15 26 49 52 87 36 34 19 -18 -5 30 40 44 59 1 -2 35 17 73 92 89 42 64 50 67 54 20 40 38 20 42 40 3 28 56 93 122 107 115 119 65 87 69 200 342 340
9 -4 -9 18 93 84 125 58 48 -13 -16 11 30 30 46 29 6 85 18 26 47 128 32 29 76 36 73 25 -35 25 18 47 56 47 68 64 32 78 64 107 86 87 149 227 222 182 190
Wind_Speed
51 53 55 57 57 57 58 60 60 60 63 64 66 65 66 70 73 75 77 80 82 82 81 79 76 73 68 45 34 35 37 37 34 37 36 29 43 51 71 73 78 86 86 86 84 79 74
53 54 56 58 59 60 60 60 63 63 66 64 65 66 69 71 74 76 79 82 84 85 83 80 74 64 50 53 34 31 25 37 37 37 36 36 45 55 73 78 81 81 85 86 83 83 66
52 54 56 57 59 61 60 61 63 63 62 63 65 68 71 73 76 79 80 83 87 87 86 80 66 50 43 33 37 46 25 30 38 44 46 52 54 61 65 75 77 82 86 83 82 75 81
55 55 54 59 58 59 61 63 64 61 63 64 67 70 71 75 77 80 84 85 87 86 83 67 51 39 44 42 38 29 21 25 43 54 53 50 53 67 69 68 73 82 80 86 82 82 65
54 55 58 59 60 59 62 64 63 62 63 63 66 70 72 75 77 82 86 89 89 81 65 52 40 35 47 43 33 35 17 28 34 47 56 51 61 62 65 67 69 74 79 80 80 79 77
57 59 62 57 58 59 62 63 65 63 63 64 66 70 73 75 77 82 87 91 85 65 45 40 34 43 39 38 50 46 31 24 31 49 49 50 51 55 63 55 70 73 73 75 74 66 46
59 58 59 60 60 60 63 63 64 62 62 62 65 70 74 76 78 81 79 70 69 46 53 55 53 43 59 62 43 47 26 24 28 40 43 44 51 53 47 71 85 82 79 76 69 59 61
56 56 58 59 61 62 64 61 62 62 61 63 66 71 73 74 78 78 67 63 59 59 73 64 47 45 50 45 40 31 15 26 36 40 48 69 74 53 63 77 87 87 84 81 74 60 41
55 56 57 57 58 60 62 65 62 61 63 66 68 70 71 73 75 61 55 53 58 61 63 60 37 37 42 39 34 26 17 15 40 40 36 84 66 61 77 82 89 90 91 82 80 69 64
57 57 56 57 58 58 59 63 63 61 62 63 65 66 67 71 62 58 52 56 58 52 60 45 30 32 31 39 38 19 8 9 42 48 50 66 85 69 81 94 85 89 82 79 79 75 78
57 60 57 57 56 57 58 61 62 61 62 61 63 65 64 58 60 54 52 62 58 47 65 30 32 32 30 35 46 28 12 16 47 45 39 48 61 71 93 74 76 87 74 67 70 77 78
59 59 60 58 55 55 59 61 63 61 59 58 62 62 61 60 38 49 60 56 50 49 61 34 32 38 39 38 32 32 29 13 19 59 53 72 57 73 77 74 83 75 72 68 67 72 86
58 58 57 58 56 58 61 61 61 59 56 59 61 61 57 58 53 60 56 51 48 54 35 33 37 41 48 44 40 28 30 30 38 48 63 68 78 75 71 75 73 70 63 47 62 70 77
57 56 57 58 58 58 60 59 55 56 53 59 61 62 61 57 52 49 47 44 61 50 44 33 46 48 51 45 33 34 38 41 23 54 59 55 71 78 63 73 67 68 68 51 46 57 67
59 58 58 56 56 59 60 57 51 53 58 58 60 63 59 49 41 39 44 58 52 44 49 45 51 53 51 36 41 46 38 45 36 11 49 48 56 50 63 64 52 64 81 66 66 54 56
61 56 56 56 59 61 55 51 50 50 52 52 59 65 66 53 35 40 54 66 56 53 53 48 52 48 48 40 47 43 36 44 37 28 7 49 54 59 56 46 60 53 60 66 57 58 52
62 58 59 58 57 56 51 48 46 45 45 43 52 59 56 31 32 45 69 62 54 67 61 50 55 57 52 54 50 52 44 37 43 43 47 57 59 51 63 56 55 55 68 59 64 61 52
62 57 59 54 55 51 50 44 44 40 42 37 45 54 31 24 42 53 70 61 71 65 59 60 54 58 59 56 56 60 56 41 37 44 47 54 55 58 67 68 57 77 70 62 62 56 65
62 61 57 55 54 51 46 47 44 37 35 39 46 51 50 37 56 58 63 67 76 77 71 69 63 55 60 62 65 61 61 54 41 45 43 46 56 61 58 57 65 59 78 67 65 61 53
60 57 55 54 54 48 48 44 42 37 30 31 44 46 38 44 57 63 62 68 70 72 77 73 69 55 57 59 59 61 57 43 43 46 37 47 52 61 63 51 42 59 60 55 64 59 53
60 58 56 51 47 49 48 42 41 37 26 24 38 44 43 43 55 63 72 59 64 67 63 58 72 69 59 66 67 67 65 71 60 43 39 40 55 61 69 64 52 55 65 60 61 59 60
57 53 49 48 49 42 43 48 44 41 30 31 38 42 51 68 61 58 68 75 78 67 68 58 68 63 60 68 64 69 66 65 59 45 45 35 53 60 65 59 57 56 45 52 61 52 47
49 44 47 44 44 46 41 39 41 36 26 34 39 56 52 55 68 73 63 72 81 72 57 61 56 63 60 54 48 57 50 44 50 55 56 45 46 51 61 54 61 64 64 42 43 48 47
44 37 30 31 33 32 32 33 38 36 29 31 35 38 51 81 72 69 72 58 62 71 73 58 51 54 46 49 51 51 54 57 57 60 59 69 60 49 58 56 70 50 39 58 62 51 55
28 25 24 23 22 22 24 25 33 34 31 33 36 35 41 75 76 76 67 68 61 60 60 60 49 42 40 43 50 59 64 64 65 64 67 62 65 55 59 55 48 47 43 42 40 46 49
30 35 37 40 38 32 23 24 25 30 34 35 31 27 61 60 80 74 72 63 65 61 56 54 37 31 35 38 42 55 57 54 53 54 50 62 64 66 54 61 59 41 29 27 27 33 17
54 59 56 55 49 41 31 26 28 26 31 29 35 48 68 72 66 61 56 54 44 48 56 49 38 37 34 38 48 56 63 54 55 56 42 51 57 71 72 69 52 45 35 29 43 33 27
67 65 60 57 51 49 46 37 32 32 28 25 53 70 73 74 73 67 68 64 60 55 51 39 35 38 33 37 42 46 47 44 48 42 36 39 49 61 69 75 82 47 46 45 26 26 30
70 72 70 65 49 50 47 48 38 43 36 29 77 72 68 71 65 57 70 77 75 71 53 46 43 32 45 45 57 49 54 45 47 43 36 45 37 46 49 63 45 37 29 24 21 20 28
Wind_Direction
326 327 322 321 322 325 325 326 324 326 324 324 323 324 323 322 319 318 316 313 311 312 315 317 321 324 328 332 314 320 333 331 321 310 288 270 272 265 260 260 257 254 248 253 254 262 270
323 323 322 321 319 320 319 322 322 323 322 323 323 322 320 319 318 317 314 310 309 310 313 316 320 325 329 321 337 349 341 319 309 304 289 280 276 269 261 257 256 253 250 251 255 252 276
322 320 319 319 318 318 318 319 322 321 323 323 323 321 318 317 316 314 314 310 307 308 309 313 320 326 326 306 327 337 346 319 299 291 288 281 282 271 264 260 256 254 254 252 251 260 247
317 318 319 317 318 319 318 317 319 320 320 320 320 319 319 316 314 312 309 309 306 306 309 319 329 333 327 333 337 329 320 300 294 279 281 285 282 271 266 263 260 250 250 248 241 241 238
316 316 316 316 317 318 317 318 317 318 318 320 321 319 318 316 315 311 308 305 300 307 320 330 337 338 331 344 345 346 342 330 308 278 276 282 275 264 261 257 256 246 249 246 249 244 252
315 314 313 316 318 317 316 317 317 318 318 320 319 316 315 314 314 312 309 302 298 314 325 331 330 333 336 343 337 338 355 350 315 283 276 272 272 259 255 253 246 243 243 248 254 260 274
315 314 317 317 318 317 316 315 316 317 320 320 319 317 315 313 311 309 314 324 326 323 324 314 314 311 313 314 327 334 357 11 335 292 267 261 260 247 245 248 238 241 248 254 254 269 267
316 317 316 317 316 317 316 315 316 317 318 319 318 317 316 314 310 310 316 320 327 321 312 314 312 312 314 318 312 321 354 341 322 302 269 257 250 254 252 244 234 239 245 250 255 266 282
317 318 318 318 318 316 314 315 315 316 316 316 317 317 314 313 309 315 321 322 328 329 314 317 325 324 329 331 319 298 315 343 311 300 282 242 247 252 247 241 237 241 241 249 254 264 271
318 318 318 318 318 317 317 315 315 315 315 316 317 317 316 314 310 318 318 324 327 337 314 315 326 336 337 337 336 328 331 339 308 287 276 253 247 252 245 235 240 244 246 252 255 259 256
320 319 319 319 319 319 318 317 315 314 314 314 315 316 314 315 310 313 315 319 322 329 303 325 328 345 338 331 329 339 329 316 298 283 281 266 254 247 241 250 245 244 252 260 261 259 260
322 322 321 321 321 321 318 316 315 313 312 312 312 315 314 308 311 311 312 315 318 308 298 314 328 326 321 316 321 329 335 312 336 276 272 260 262 251 251 252 248 253 254 261 263 262 254
323 324 324 322 321 320 318 316 315 313 311 309 309 308 307 304 300 305 310 309 299 292 318 309 319 319 315 315 312 309 316 314 292 284 266 265 252 254 252 251 250 252 253 261 260 257 258
323 323 323 322 320 319 319 316 315 313 311 308 306 304 301 295 297 300 304 295 281 296 300 318 312 309 307 313 311 307 303 300 312 277 274 277 255 250 254 249 249 246 251 254 262 266 265
324 322 321 320 321 320 317 316 312 312 311 308 305 300 295 293 291 290 286 275 284 289 299 304 303 299 297 303 304 298 297 298 308 308 273 281 266 264 256 253 251 246 247 253 261 275 277
322 322 322 322 319 320 316 316 314 312 314 311 302 297 290 285 279 277 271 269 278 286 294 299 295 297 294 298 296 297 301 302 312 322 294 280 274 268 257 254 255 252 250 253 259 262 269
318 318 319 317 318 318 317 315 313 313 312 311 303 295 294 276 270 267 263 267 276 276 286 287 286 285 286 287 287 288 295 302 310 310 303 270 271 280 260 251 254 251 248 253 258 257 263
317 314 315 314 315 314 312 314 312 307 308 308 300 289 299 276 262 269 265 268 269 274 283 276 284 282 279 282 281 281 281 307 313 312 300 287 272 271 259 255 258 252 254 253 254 255 257
315 314 312 312 311 310 308 306 301 300 302 301 293 287 284 280 269 267 270 270 267 267 269 272 273 279 276 276 276 280 279 287 309 308 305 306 264 266 268 259 257 254 248 256 253 260 259
314 313 312 310 309 306 303 298 297 298 300 288 292 293 285 271 270 271 271 268 268 268 266 268 269 278 275 273 275 275 279 293 302 304 307 299 279 261 261 269 271 259 255 254 250 254 255
314 312 309 307 306 302 299 294 293 292 291 288 286 284 288 285 271 266 265 272 267 266 265 269 265 266 272 272 272 272 275 275 285 298 300 297 274 271 258 263 265 267 255 257 249 254 259
313 312 310 305 303 301 296 290 287 282 278 275 283 286 284 273 278 274 262 260 260 267 263 263 263 267 271 270 274 273 280 280 278 289 291 295 276 281 264 263 261 264 268 260 254 252 264
311 309 308 304 300 297 296 291 284 276 257 274 279 275 292 275 268 264 269 261 257 260 267 270 269 270 268 278 290 287 292 291 285 280 278 284 282 282 261 269 261 260 256 260 262 262 265
307 302 293 295 296 292 287 285 278 274 251 261 278 286 281 261 261 260 259 267 263 257 258 267 272 270 282 295 292 290 288 284 282 279 277 267 271 277 270 271 255 268 285 265 264 272 269
289 273 265 262 263 263 272 265 272 267 259 254 271 276 284 255 250 251 257 257 264 260 261 262 274 284 289 292 286 283 281 281 276 274 267 263 258 266 263 263 277 275 272 277 269 267 270
261 242 235 229 226 226 242 234 240 258 257 257 259 266 251 252 240 246 250 257 255 258 258 261 275 290 292 279 288 279 277 282 278 280 263 256 251 251 260 259 259 280 297 291 295 276 306
239 238 234 232 228 224 221 222 217 221 252 243 270 251 242 245 245 247 250 254 270 260 254 263 271 280 285 278 279 277 274 275 274 273 267 247 247 246 250 257 268 277 296 291 267 279 309
244 241 237 236 236 228 219 211 207 203 203 222 246 239 238 238 244 246 247 250 252 255 258 269 275 277 279 274 277 279 277 274 271 279 277 255 252 251 250 255 257 277 280 278 291 304 308
246 245 243 241 235 221 210 202 198 189 188 189 231 231 236 237 242 256 248 242 241 243 260 265 263 284 246 251 224 255 247 264 266 273 280 271 267 258 257 256 281 285 279 297 317 310 308